Location: Coopersdale
(40.3556°N, 78.9372°W)
Time: 02:36:46
(UTC+00:00)

Tiros 1 despin weight - Pass Details

Date: 24 January 2021
Orbit: 593 x 642 km, 48.2° (Epoch: 02 March)

Event Time Altitude Azimuth Distance (km) Brightness Sun altitude
Rises 20:01:17 0° 251° (WSW) 2,890 ? 20.8°
Reaches altitude 10° 20:03:38 10° 255° (WSW) 1,978 ? 20.5°
Maximum altitude 20:08:08 60° 335° (NNW) 704 ? 19.9°
Drops below altitude 10° 20:12:34 10° 56° (NE) 1,953 ? 19.4°
Sets 20:14:53 0° 60° (ENE) 2,851 ? 19.1°
